THY143 OERK-LTFM

Flight info

Callsign THY143
Flight time N/A
Altitude 36000
Route LONIB T503 OVANO L768 FIRAS R655 KTN Q538 ALE M861 NISAP UM861 BELSU UA17 YAVRU UL615 ERSEN
Aircraft B738/M-SADE1E2E3FGHIJ1RWYZ/LB1

Departure

Time 2026-05-01 09:32
Airport King Khalid International Airport (OERK)

Arrival

Time N/A
Airport İstanbul Airport (LTFM)
Time Latitude Longitude Altitude Speed Heading
2026-05-01 08:10 24.94282 46.71326 2075 ft 0 kts 242°
2026-05-01 09:17 24.94288 46.71339 2045 ft 2 kts 242°
2026-05-01 09:18 24.94296 46.71355 2044 ft 2 kts 242°
2026-05-01 09:18 24.94311 46.71386 2042 ft 2 kts 242°
2026-05-01 09:19 24.94314 46.71421 2044 ft 2 kts 316°
2026-05-01 09:19 24.94301 46.71430 2042 ft 0 kts 329°
2026-05-01 09:24 24.94312 46.71423 2048 ft 5 kts 329°
2026-05-01 09:24 24.94358 46.71393 2050 ft 11 kts 329°
2026-05-01 09:24 24.94524 46.71287 2048 ft 14 kts 329°
2026-05-01 09:25 24.94656 46.71374 2048 ft 13 kts 60°
2026-05-01 09:25 24.94772 46.71596 2051 ft 19 kts 60°
2026-05-01 09:26 24.94869 46.71639 2047 ft 17 kts 330°
2026-05-01 09:26 24.95093 46.71496 2053 ft 21 kts 330°
2026-05-01 09:26 24.95234 46.71407 2047 ft 25 kts 330°
2026-05-01 09:27 24.95549 46.71212 2047 ft 25 kts 331°
2026-05-01 09:27 24.95696 46.71115 2050 ft 24 kts 329°
2026-05-01 09:27 24.95835 46.71028 2047 ft 23 kts 330°
2026-05-01 09:28 24.95970 46.70943 2047 ft 22 kts 330°
2026-05-01 09:28 24.96103 46.70859 2047 ft 22 kts 330°
2026-05-01 09:28 24.96243 46.70772 2046 ft 24 kts 330°
2026-05-01 09:28 24.96395 46.70677 2046 ft 26 kts 331°
2026-05-01 09:29 24.96714 46.70474 2050 ft 27 kts 330°
2026-05-01 09:29 24.96873 46.70378 2046 ft 25 kts 330°
2026-05-01 09:30 24.97161 46.70192 2046 ft 24 kts 329°
2026-05-01 09:30 24.97310 46.70098 2046 ft 24 kts 330°
2026-05-01 09:30 24.97490 46.70208 2044 ft 18 kts 60°
2026-05-01 09:31 24.97484 46.70333 2042 ft 18 kts 143°
2026-05-01 09:31 24.97336 46.70426 2044 ft 44 kts 150°
2026-05-01 09:31 24.96050 46.71240 2053 ft 161 kts 148°
2026-05-01 09:32 24.95046 46.71885 2579 ft 175 kts 146°
2026-05-01 09:32 24.93020 46.73609 3911 ft 184 kts 141°
2026-05-01 09:32 24.92005 46.74469 4420 ft 186 kts 140°
2026-05-01 09:33 24.91020 46.75399 4992 ft 184 kts 134°
2026-05-01 09:33 24.90101 46.76389 5414 ft 195 kts 136°
2026-05-01 09:33 24.89053 46.79340 5817 ft 229 kts 97°
2026-05-01 09:34 24.89048 46.81192 5872 ft 256 kts 85°
2026-05-01 09:34 24.89637 46.83157 5984 ft 284 kts 61°
2026-05-01 09:34 24.91412 46.87113 7044 ft 292 kts 75°
2026-05-01 09:35 24.91943 46.89264 7535 ft 298 kts 74°
2026-05-01 09:35 24.93759 46.93362 8797 ft 310 kts 63°
2026-05-01 09:35 24.94810 46.95452 9531 ft 314 kts 62°
2026-05-01 09:36 24.95954 46.97538 10098 ft 323 kts 48°
2026-05-01 09:36 24.97789 46.99054 10330 ft 340 kts 19°
2026-05-01 09:36 25.00140 46.99491 10520 ft 352 kts 352°
2026-05-01 09:36 25.02549 46.98860 10730 ft 361 kts 332°
2026-05-01 09:37 25.04717 46.97449 11170 ft 362 kts 316°
2026-05-01 09:37 25.08044 46.93373 12515 ft 359 kts 304°
2026-05-01 09:37 25.09584 46.91186 13183 ft 361 kts 303°
2026-05-01 09:38 25.12699 46.86771 14406 ft 366 kts 304°
2026-05-01 09:38 25.14268 46.84589 15010 ft 368 kts 304°
2026-05-01 09:38 25.15881 46.82371 15565 ft 372 kts 305°
2026-05-01 09:39 25.19169 46.77897 16669 ft 378 kts 305°
2026-05-01 09:39 25.20843 46.75630 17207 ft 381 kts 306°
2026-05-01 09:39 25.22524 46.73358 17722 ft 384 kts 306°
2026-05-01 09:40 25.24202 46.71089 18263 ft 387 kts 306°
2026-05-01 09:40 25.27634 46.66451 19183 ft 392 kts 306°
2026-05-01 09:40 25.29357 46.64120 19640 ft 394 kts 306°
2026-05-01 09:41 25.31099 46.61760 20098 ft 396 kts 305°
2026-05-01 09:41 25.34574 46.57049 21002 ft 400 kts 305°
2026-05-01 09:41 25.36351 46.54635 21458 ft 402 kts 305°
2026-05-01 09:42 25.38125 46.52224 21895 ft 404 kts 305°
2026-05-01 09:42 25.39906 46.49804 22337 ft 406 kts 305°
2026-05-01 09:42 25.43494 46.44932 23224 ft 409 kts 306°
2026-05-01 09:43 25.47096 46.40039 23884 ft 415 kts 305°
2026-05-01 09:43 25.48305 46.38396 24102 ft 415 kts 305°
2026-05-01 09:43 25.50122 46.35928 24476 ft 416 kts 305°
2026-05-01 09:44 25.53793 46.30932 25162 ft 418 kts 304°
2026-05-01 09:44 25.56235 46.27593 25567 ft 421 kts 304°
2026-05-01 09:44 25.57449 46.25933 25780 ft 422 kts 304°
2026-05-01 09:45 25.59315 46.23382 26096 ft 423 kts 304°
2026-05-01 09:45 25.63045 46.18285 26728 ft 426 kts 304°
2026-05-01 09:45 25.64910 46.15737 26992 ft 428 kts 304°
2026-05-01 09:46 25.66788 46.13176 27270 ft 430 kts 304°
2026-05-01 09:46 25.68675 46.10600 27556 ft 431 kts 304°
2026-05-01 09:46 25.70569 46.08010 27827 ft 433 kts 304°
2026-05-01 09:46 25.72470 46.05407 28094 ft 435 kts 304°
2026-05-01 09:47 25.74378 46.02792 28367 ft 436 kts 304°
2026-05-01 09:47 25.76286 46.00175 28612 ft 438 kts 304°
2026-05-01 09:47 25.78216 45.97525 28846 ft 440 kts 304°
2026-05-01 09:47 25.80074 45.94973 29117 ft 441 kts 303°
2026-05-01 09:48 25.81915 45.92400 29564 ft 436 kts 302°
2026-05-01 09:48 25.83753 45.89757 30185 ft 429 kts 302°
2026-05-01 09:48 25.85563 45.87169 30798 ft 420 kts 302°
2026-05-01 09:48 25.87356 45.84641 31427 ft 412 kts 302°
2026-05-01 09:49 25.89135 45.82169 31908 ft 408 kts 301°
2026-05-01 09:49 25.90923 45.79704 31966 ft 410 kts 301°
2026-05-01 09:49 25.94524 45.74776 31987 ft 409 kts 302°
2026-05-01 09:50 25.98096 45.69897 31996 ft 408 kts 302°
2026-05-01 09:50 26.01671 45.65007 31989 ft 407 kts 301°
2026-05-01 09:51 26.05218 45.60148 31992 ft 406 kts 301°
2026-05-01 09:51 26.08783 45.55257 31988 ft 406 kts 302°
2026-05-01 09:52 26.12351 45.50359 31982 ft 406 kts 302°
2026-05-01 09:52 26.15916 45.45459 31979 ft 407 kts 301°
2026-05-01 09:53 26.19815 45.40876 31986 ft 414 kts 309°
2026-05-01 09:53 26.24079 45.36494 31978 ft 415 kts 309°
2026-05-01 09:54 26.28270 45.32127 31979 ft 414 kts 309°
2026-05-01 09:54 26.32462 45.27717 31973 ft 415 kts 309°
2026-05-01 09:55 26.36674 45.23303 31984 ft 415 kts 309°
2026-05-01 09:55 26.40899 45.18872 31973 ft 415 kts 309°
2026-05-01 09:56 26.45075 45.14486 31976 ft 415 kts 309°
2026-05-01 09:56 26.49294 45.10047 31972 ft 415 kts 309°
2026-05-01 09:57 26.53504 45.05612 31987 ft 420 kts 309°
2026-05-01 09:57 26.57769 45.01114 31979 ft 428 kts 309°
2026-05-01 09:58 26.62090 44.96560 31969 ft 429 kts 309°
2026-05-01 09:58 26.66440 44.91971 31963 ft 428 kts 309°
2026-05-01 09:59 26.70720 44.87448 31962 ft 428 kts 309°
2026-05-01 09:59 26.75056 44.82861 31958 ft 427 kts 309°
2026-05-01 10:00 26.79344 44.78317 31960 ft 426 kts 309°
2026-05-01 10:00 26.83605 44.73790 31956 ft 425 kts 309°
2026-05-01 10:01 26.87893 44.69229 31956 ft 425 kts 309°
2026-05-01 10:01 26.92145 44.64703 31961 ft 424 kts 309°
2026-05-01 10:02 26.96418 44.60147 31960 ft 423 kts 309°
2026-05-01 10:02 27.00676 44.55602 31963 ft 423 kts 309°
2026-05-01 10:03 27.04907 44.51078 31959 ft 423 kts 309°
2026-05-01 10:03 27.09212 44.46466 31961 ft 423 kts 309°
2026-05-01 10:04 27.13460 44.41911 31960 ft 423 kts 308°
2026-05-01 10:04 27.17730 44.37329 31956 ft 424 kts 308°
2026-05-01 10:05 27.21988 44.32764 31955 ft 423 kts 308°
2026-05-01 10:05 27.26234 44.28208 31962 ft 423 kts 308°
2026-05-01 10:06 27.30493 44.23634 31950 ft 423 kts 308°
2026-05-01 10:06 27.34745 44.19059 31973 ft 422 kts 308°
2026-05-01 10:07 27.38985 44.14493 31958 ft 422 kts 308°
2026-05-01 10:07 27.43182 44.09968 31969 ft 421 kts 308°
2026-05-01 10:08 27.49543 44.03099 31960 ft 421 kts 308°
2026-05-01 10:09 27.53752 43.98548 31958 ft 420 kts 308°
2026-05-01 10:09 27.57979 43.93973 31964 ft 420 kts 308°
2026-05-01 10:10 27.62169 43.89432 31964 ft 420 kts 308°
2026-05-01 10:10 27.68496 43.82565 31963 ft 419 kts 308°
2026-05-01 10:11 27.72690 43.78007 31963 ft 419 kts 308°
2026-05-01 10:11 27.76882 43.73446 31965 ft 418 kts 308°
2026-05-01 10:12 27.80364 43.69652 31966 ft 418 kts 308°
2026-05-01 10:13 27.87273 43.61963 31965 ft 416 kts 306°
2026-05-01 10:13 27.91205 43.57182 31968 ft 415 kts 305°
2026-05-01 10:14 27.97068 43.50029 31969 ft 415 kts 306°
2026-05-01 10:14 28.01011 43.45255 31979 ft 415 kts 306°
2026-05-01 10:15 28.04963 43.40476 31974 ft 416 kts 306°
2026-05-01 10:15 28.08917 43.35692 31968 ft 416 kts 306°
2026-05-01 10:16 28.12869 43.30906 31978 ft 416 kts 306°
2026-05-01 10:17 28.18787 43.23727 31975 ft 415 kts 306°
2026-05-01 10:17 28.24705 43.16534 31980 ft 416 kts 306°
2026-05-01 10:18 28.30624 43.09328 31984 ft 416 kts 306°
2026-05-01 10:19 28.34564 43.04524 31978 ft 416 kts 306°
2026-05-01 10:19 28.38502 42.99717 31982 ft 416 kts 305°
2026-05-01 10:20 28.44401 42.92506 31981 ft 416 kts 305°
2026-05-01 10:20 28.48334 42.87691 31983 ft 416 kts 305°
2026-05-01 10:21 28.54213 42.80483 31982 ft 416 kts 305°
2026-05-01 10:22 28.60147 42.73193 31985 ft 416 kts 305°
2026-05-01 10:23 28.66017 42.65971 31986 ft 416 kts 305°
2026-05-01 10:23 28.71928 42.58686 31988 ft 416 kts 305°
2026-05-01 10:24 28.79760 42.49009 31992 ft 415 kts 305°
2026-05-01 10:25 28.87579 42.39327 31993 ft 415 kts 305°
2026-05-01 10:26 28.91467 42.34503 31993 ft 415 kts 305°
2026-05-01 10:27 28.99264 42.24809 31994 ft 414 kts 305°
2026-05-01 10:28 29.05103 42.17538 31999 ft 414 kts 305°
2026-05-01 10:28 29.10916 42.10286 32002 ft 414 kts 305°
2026-05-01 10:29 29.16762 42.02979 32002 ft 415 kts 305°
2026-05-01 10:30 29.24565 41.93203 32001 ft 416 kts 305°
2026-05-01 10:31 29.32341 41.83437 31991 ft 416 kts 305°
2026-05-01 10:32 29.37557 41.76874 31994 ft 417 kts 305°
2026-05-01 10:33 29.45353 41.67043 31998 ft 417 kts 305°
2026-05-01 10:34 29.51204 41.59649 31994 ft 417 kts 305°
2026-05-01 10:34 29.55111 41.54703 31997 ft 418 kts 305°
2026-05-01 10:35 29.60959 41.47289 31997 ft 418 kts 305°
2026-05-01 10:35 29.64864 41.42331 32000 ft 419 kts 305°
2026-05-01 10:36 29.70717 41.34888 31996 ft 420 kts 305°
2026-05-01 10:37 29.74711 41.29936 31986 ft 424 kts 309°
2026-05-01 10:37 29.81336 41.23146 31991 ft 427 kts 311°
2026-05-01 10:38 29.85805 41.18621 31993 ft 427 kts 311°
2026-05-01 10:38 29.90227 41.14097 31993 ft 427 kts 311°
2026-05-01 10:39 29.94670 41.09527 31995 ft 427 kts 311°
2026-05-01 10:39 29.99079 41.04981 31992 ft 427 kts 311°
2026-05-01 10:40 30.03537 41.00379 31991 ft 427 kts 311°
2026-05-01 10:40 30.07929 40.95840 31988 ft 427 kts 311°
2026-05-01 10:41 30.12385 40.91231 31987 ft 427 kts 311°
2026-05-01 10:42 30.18997 40.84380 31982 ft 425 kts 311°
2026-05-01 10:42 30.23396 40.79814 31987 ft 425 kts 311°
2026-05-01 10:43 30.27793 40.75245 31992 ft 424 kts 311°
2026-05-01 10:43 30.32130 40.70731 31986 ft 424 kts 311°
2026-05-01 10:44 30.36544 40.66133 31987 ft 423 kts 311°
2026-05-01 10:44 30.40936 40.61575 31991 ft 424 kts 311°
2026-05-01 10:45 30.45344 40.57070 31987 ft 424 kts 311°
2026-05-01 10:45 30.49786 40.52533 31979 ft 425 kts 311°
2026-05-01 10:46 30.54190 40.48021 31978 ft 425 kts 311°
2026-05-01 10:46 30.58632 40.43460 31975 ft 425 kts 311°
2026-05-01 10:47 30.63036 40.38929 31975 ft 425 kts 311°
2026-05-01 10:47 30.67470 40.34363 31977 ft 425 kts 311°
2026-05-01 10:48 30.71902 40.29792 31970 ft 425 kts 311°
2026-05-01 10:48 30.76314 40.25237 31968 ft 425 kts 311°
2026-05-01 10:49 30.80728 40.20673 31967 ft 425 kts 311°
2026-05-01 10:49 30.85142 40.16104 31966 ft 425 kts 311°
2026-05-01 10:50 30.89571 40.11514 31959 ft 426 kts 311°
2026-05-01 10:50 30.93972 40.06946 31961 ft 426 kts 311°
2026-05-01 10:51 30.98370 40.02375 31954 ft 426 kts 311°
2026-05-01 10:51 31.02829 39.97735 31955 ft 426 kts 311°
2026-05-01 10:52 31.07259 39.93120 31953 ft 426 kts 311°
2026-05-01 10:52 31.11644 39.88545 31952 ft 427 kts 311°
2026-05-01 10:53 31.16056 39.83936 31951 ft 427 kts 311°
2026-05-01 10:53 31.20517 39.79270 31950 ft 427 kts 311°
2026-05-01 10:54 31.24951 39.74625 31950 ft 428 kts 311°
2026-05-01 10:54 31.29370 39.69991 31952 ft 428 kts 311°
2026-05-01 10:55 31.33814 39.65323 31940 ft 429 kts 311°
2026-05-01 10:55 31.38224 39.60686 31942 ft 428 kts 312°
2026-05-01 10:56 31.42672 39.56002 31933 ft 429 kts 312°
2026-05-01 10:56 31.47113 39.51321 31946 ft 429 kts 312°
2026-05-01 10:57 31.51521 39.46669 31937 ft 429 kts 312°
2026-05-01 10:57 31.55965 39.41971 31937 ft 428 kts 312°
2026-05-01 10:58 31.60380 39.37296 31934 ft 428 kts 312°
2026-05-01 10:58 31.64780 39.32632 31940 ft 428 kts 312°
2026-05-01 10:59 31.69211 39.27928 31932 ft 428 kts 312°
2026-05-01 10:59 31.73602 39.23261 31940 ft 428 kts 312°
2026-05-01 11:00 31.78007 39.18573 31937 ft 428 kts 312°
2026-05-01 11:00 31.82950 39.14556 31935 ft 439 kts 327°
2026-05-01 11:01 31.88433 39.11398 31935 ft 441 kts 328°
2026-05-01 11:01 31.93921 39.08224 31934 ft 440 kts 327°
2026-05-01 11:02 31.99428 39.04971 31936 ft 440 kts 327°
2026-05-01 11:02 32.04882 39.01744 31943 ft 441 kts 328°
2026-05-01 11:03 32.10361 38.98517 31945 ft 441 kts 328°
2026-05-01 11:03 32.15884 38.95261 31935 ft 442 kts 328°
2026-05-01 11:04 32.21399 38.92003 31927 ft 442 kts 328°
2026-05-01 11:04 32.26845 38.88779 31928 ft 442 kts 328°
2026-05-01 11:05 32.32372 38.85504 31940 ft 442 kts 328°
2026-05-01 11:05 32.37883 38.82233 31919 ft 442 kts 328°
2026-05-01 11:06 32.43382 38.78965 31920 ft 442 kts 328°
2026-05-01 11:06 32.48877 38.75694 31920 ft 442 kts 328°
2026-05-01 11:07 32.57087 38.70799 31919 ft 442 kts 328°
2026-05-01 11:07 32.62584 38.67519 31920 ft 442 kts 328°
2026-05-01 11:08 32.68077 38.64237 31918 ft 442 kts 329°
2026-05-01 11:09 32.76294 38.59319 31921 ft 442 kts 329°
2026-05-01 11:09 32.81790 38.56024 31917 ft 443 kts 329°
2026-05-01 11:10 32.90042 38.51066 31918 ft 444 kts 329°
2026-05-01 11:10 32.95525 38.47767 31916 ft 444 kts 329°
2026-05-01 11:11 33.01084 38.44416 31916 ft 445 kts 329°
2026-05-01 11:11 33.06565 38.41107 31909 ft 446 kts 329°
2026-05-01 11:12 33.12143 38.37735 31912 ft 447 kts 329°
2026-05-01 11:12 33.17712 38.34368 31908 ft 447 kts 329°
2026-05-01 11:13 33.23232 38.31028 31907 ft 448 kts 329°
2026-05-01 11:13 33.28788 38.27641 31903 ft 448 kts 329°
2026-05-01 11:14 33.34330 38.24254 31902 ft 448 kts 329°
2026-05-01 11:14 33.39887 38.20855 31900 ft 448 kts 329°
2026-05-01 11:15 33.45447 38.17452 31901 ft 449 kts 329°
2026-05-01 11:15 33.50974 38.14089 31900 ft 449 kts 329°
2026-05-01 11:16 33.56544 38.10711 31903 ft 449 kts 329°
2026-05-01 11:16 33.62165 38.07295 31895 ft 449 kts 329°
2026-05-01 11:17 33.67746 38.03894 31895 ft 449 kts 329°
2026-05-01 11:17 33.73298 38.00505 31895 ft 450 kts 329°
2026-05-01 11:18 33.78889 37.97087 31898 ft 450 kts 329°
2026-05-01 11:18 33.84392 37.93585 31888 ft 448 kts 322°
2026-05-01 11:19 33.88955 37.88606 31895 ft 439 kts 306°
2026-05-01 11:19 33.92301 37.82503 31900 ft 436 kts 298°
2026-05-01 11:20 33.95450 37.76335 31896 ft 437 kts 298°
2026-05-01 11:20 33.98662 37.70110 31895 ft 438 kts 299°
2026-05-01 11:21 34.01922 37.63848 31885 ft 439 kts 299°
2026-05-01 11:21 34.04627 37.58656 31887 ft 439 kts 299°
2026-05-01 11:22 34.08410 37.51384 31885 ft 439 kts 299°
2026-05-01 11:22 34.11094 37.46212 31885 ft 439 kts 299°
2026-05-01 11:23 34.14357 37.39914 31880 ft 440 kts 299°
2026-05-01 11:23 34.17594 37.33658 31873 ft 439 kts 299°
2026-05-01 11:24 34.21703 37.28244 31883 ft 450 kts 326°
2026-05-01 11:24 34.27731 37.26036 31890 ft 463 kts 354°
2026-05-01 11:25 34.30905 37.25916 31883 ft 464 kts 355°
2026-05-01 11:25 34.40634 37.25809 31877 ft 465 kts 356°
2026-05-01 11:26 34.50348 37.25602 31891 ft 465 kts 355°
2026-05-01 11:27 34.56786 37.25421 31893 ft 465 kts 355°
2026-05-01 11:27 34.63286 37.25232 31898 ft 469 kts 354°
2026-05-01 11:28 34.69830 37.25037 31906 ft 476 kts 354°
2026-05-01 11:28 34.76467 37.24852 31900 ft 475 kts 354°
2026-05-01 11:29 34.86326 37.24575 31897 ft 475 kts 354°
2026-05-01 11:30 34.96275 37.24292 31896 ft 474 kts 354°
2026-05-01 11:30 35.02835 37.24104 31898 ft 474 kts 354°
2026-05-01 11:31 35.09435 37.23915 31882 ft 473 kts 354°
2026-05-01 11:31 35.16018 37.23726 31882 ft 473 kts 354°
2026-05-01 11:32 35.22584 37.23537 31898 ft 472 kts 354°
2026-05-01 11:32 35.29134 37.23349 31892 ft 472 kts 354°
2026-05-01 11:33 35.35714 37.23159 31893 ft 471 kts 354°
2026-05-01 11:33 35.42245 37.22970 31893 ft 471 kts 355°
2026-05-01 11:34 35.48817 37.22780 31891 ft 471 kts 355°
2026-05-01 11:34 35.55376 37.22590 31893 ft 470 kts 355°
2026-05-01 11:35 35.61885 37.22402 31886 ft 470 kts 355°
2026-05-01 11:35 35.68381 37.22213 31894 ft 469 kts 355°
2026-05-01 11:36 35.74961 37.22021 31897 ft 469 kts 355°
2026-05-01 11:36 35.81450 37.21832 31902 ft 468 kts 355°
2026-05-01 11:37 35.87972 37.21641 31912 ft 468 kts 355°
2026-05-01 11:37 35.94489 37.21451 31932 ft 468 kts 355°
2026-05-01 11:38 36.00969 37.21271 31952 ft 468 kts 355°
2026-05-01 11:38 36.07504 37.21147 31965 ft 468 kts 356°
2026-05-01 11:39 36.13961 37.20963 31970 ft 466 kts 351°
2026-05-01 11:39 36.17091 37.20211 31965 ft 460 kts 339°
2026-05-01 11:39 36.20101 37.18752 31972 ft 454 kts 329°
2026-05-01 11:40 36.25224 37.14387 31974 ft 450 kts 319°
2026-05-01 11:40 36.30194 37.09616 31960 ft 452 kts 319°
2026-05-01 11:41 36.35202 37.04924 31938 ft 452 kts 320°
2026-05-01 11:41 36.40270 37.00204 31932 ft 452 kts 320°
2026-05-01 11:42 36.45274 36.95505 31911 ft 453 kts 319°
2026-05-01 11:42 36.50255 36.90815 31912 ft 452 kts 319°
2026-05-01 11:43 36.55260 36.86096 31917 ft 451 kts 319°
2026-05-01 11:43 36.60282 36.81355 31911 ft 451 kts 319°
2026-05-01 11:44 36.67781 36.74261 31912 ft 450 kts 320°
2026-05-01 11:44 36.72753 36.69546 31911 ft 450 kts 320°
2026-05-01 11:45 36.77707 36.64843 31920 ft 451 kts 320°
2026-05-01 11:45 36.82691 36.60051 31924 ft 451 kts 319°
2026-05-01 11:46 36.87647 36.55231 31926 ft 451 kts 319°
2026-05-01 11:46 36.92580 36.50434 31936 ft 451 kts 319°
2026-05-01 11:47 36.97523 36.45631 31930 ft 451 kts 319°
2026-05-01 11:47 37.02478 36.40822 31948 ft 451 kts 319°
2026-05-01 11:48 37.07435 36.36004 31935 ft 451 kts 319°
2026-05-01 11:48 37.12392 36.31175 31925 ft 451 kts 319°
2026-05-01 11:49 37.17350 36.26336 31933 ft 450 kts 319°
2026-05-01 11:49 37.22297 36.21499 31911 ft 451 kts 319°
2026-05-01 11:50 37.27237 36.16660 31916 ft 450 kts 319°
2026-05-01 11:50 37.32140 36.11850 31912 ft 450 kts 319°
2026-05-01 11:51 37.37075 36.07001 31911 ft 449 kts 319°
2026-05-01 11:51 37.41979 36.02173 31903 ft 449 kts 319°
2026-05-01 11:52 37.46889 35.97331 31904 ft 448 kts 319°
2026-05-01 11:52 37.51794 35.92486 31903 ft 447 kts 319°
2026-05-01 11:53 37.56695 35.87636 31911 ft 447 kts 319°
2026-05-01 11:53 37.61594 35.82780 31900 ft 447 kts 319°
2026-05-01 11:54 37.66445 35.77962 31913 ft 447 kts 319°
2026-05-01 11:54 37.71332 35.73102 31929 ft 446 kts 318°
2026-05-01 11:55 37.76216 35.68236 31909 ft 446 kts 318°
2026-05-01 11:55 37.81039 35.63422 31919 ft 446 kts 318°
2026-05-01 11:56 37.85915 35.58547 31924 ft 446 kts 318°
2026-05-01 11:56 37.90799 35.53655 31921 ft 447 kts 318°
2026-05-01 11:57 37.94854 35.49587 31913 ft 447 kts 318°
2026-05-01 11:57 38.00532 35.43882 31910 ft 446 kts 318°
2026-05-01 11:58 38.05404 35.38976 31904 ft 446 kts 318°
2026-05-01 11:59 38.12623 35.31692 31896 ft 444 kts 317°
2026-05-01 11:59 38.17486 35.26774 31888 ft 444 kts 317°
2026-05-01 12:00 38.24744 35.19419 31894 ft 444 kts 317°
2026-05-01 12:01 38.31961 35.12084 31885 ft 444 kts 317°
2026-05-01 12:01 38.36781 35.07177 31873 ft 444 kts 317°
2026-05-01 12:02 38.41611 35.02263 31879 ft 444 kts 317°
2026-05-01 12:02 38.46441 34.97353 31896 ft 444 kts 317°
2026-05-01 12:03 38.51250 34.92455 31898 ft 444 kts 317°
2026-05-01 12:03 38.56050 34.87553 31893 ft 444 kts 317°
2026-05-01 12:04 38.60902 34.82591 31900 ft 444 kts 317°
2026-05-01 12:04 38.65738 34.77636 31907 ft 444 kts 317°
2026-05-01 12:05 38.70516 34.72730 31912 ft 444 kts 317°
2026-05-01 12:05 38.77758 34.65279 31916 ft 443 kts 316°
2026-05-01 12:06 38.82522 34.60366 31918 ft 444 kts 316°
2026-05-01 12:06 38.87353 34.55374 31895 ft 444 kts 316°
2026-05-01 12:07 38.92153 34.50408 31921 ft 444 kts 316°
2026-05-01 12:07 38.96967 34.45417 31908 ft 444 kts 316°
2026-05-01 12:08 39.01786 34.40412 31915 ft 444 kts 316°
2026-05-01 12:08 39.06540 34.35464 31911 ft 444 kts 316°
2026-05-01 12:09 39.11353 34.30448 31910 ft 444 kts 316°
2026-05-01 12:09 39.15679 34.24896 31926 ft 436 kts 305°
2026-05-01 12:10 39.21427 34.15874 31920 ft 436 kts 305°
2026-05-01 12:11 39.27269 34.06785 31920 ft 436 kts 305°
2026-05-01 12:11 39.31136 34.00802 31922 ft 435 kts 305°
2026-05-01 12:12 39.34984 33.94840 31939 ft 435 kts 305°
2026-05-01 12:12 39.38240 33.89782 31925 ft 435 kts 305°
2026-05-01 12:13 39.42723 33.82806 31934 ft 436 kts 304°
2026-05-01 12:13 39.45974 33.77738 31930 ft 437 kts 304°
2026-05-01 12:14 39.49795 33.71620 31934 ft 437 kts 303°
2026-05-01 12:14 39.53597 33.65462 31939 ft 438 kts 303°
2026-05-01 12:15 39.57413 33.59298 31942 ft 439 kts 303°
2026-05-01 12:15 39.61290 33.53157 31941 ft 441 kts 304°
2026-05-01 12:16 39.65227 33.47036 31960 ft 442 kts 304°
2026-05-01 12:16 39.69154 33.40909 31961 ft 443 kts 304°
2026-05-01 12:17 39.73090 33.34738 31968 ft 445 kts 304°
2026-05-01 12:17 39.77030 33.28543 31963 ft 444 kts 304°
2026-05-01 12:18 39.80961 33.22349 31958 ft 443 kts 304°
2026-05-01 12:18 39.84877 33.16164 31970 ft 441 kts 304°
2026-05-01 12:19 39.88741 33.10051 31985 ft 439 kts 304°
2026-05-01 12:19 39.92623 33.03895 31990 ft 438 kts 304°
2026-05-01 12:20 39.96498 32.97738 32002 ft 439 kts 303°
2026-05-01 12:20 40.00346 32.91611 31998 ft 440 kts 303°
2026-05-01 12:21 40.04218 32.85436 31995 ft 440 kts 303°
2026-05-01 12:21 40.08046 32.79191 31999 ft 438 kts 301°
2026-05-01 12:22 40.11490 32.72772 32006 ft 436 kts 298°
2026-05-01 12:22 40.14886 32.66241 32002 ft 430 kts 298°
2026-05-01 12:23 40.18270 32.59792 32030 ft 429 kts 298°
2026-05-01 12:23 40.21634 32.53415 32038 ft 430 kts 298°
2026-05-01 12:24 40.25051 32.46942 32052 ft 430 kts 298°
2026-05-01 12:24 40.28457 32.40477 32052 ft 431 kts 298°
2026-05-01 12:25 40.33558 32.30766 32072 ft 431 kts 298°
2026-05-01 12:26 40.36943 32.24305 32076 ft 431 kts 298°
2026-05-01 12:26 40.42025 32.14582 32085 ft 432 kts 298°
2026-05-01 12:27 40.47104 32.04803 32100 ft 432 kts 297°
2026-05-01 12:28 40.52145 31.95061 32099 ft 431 kts 297°
2026-05-01 12:29 40.57219 31.85200 32095 ft 431 kts 295°
2026-05-01 12:29 40.60436 31.74715 32106 ft 400 kts 281°
2026-05-01 12:30 40.62944 31.64277 32116 ft 399 kts 281°
2026-05-01 12:31 40.64632 31.57380 32122 ft 400 kts 281°
2026-05-01 12:31 40.66356 31.50365 32125 ft 400 kts 281°
2026-05-01 12:32 40.68070 31.43371 32131 ft 400 kts 281°